TimeCST,TemperatureF,Dew PointF,Humidity,Sea Level PressureIn,VisibilityMPH,Wind Direction,Wind SpeedMPH,Gust SpeedMPH,PrecipitationIn,Events,Conditions,WindDirDegrees,DateUTC
12:15 AM,18.0,8.8,67,30.40,10.0,South,3.5,-,N/A,,Clear,170,2013-01-15 06:15:00
12:35 AM,17.4,9.3,71,30.40,10.0,South,4.6,-,N/A,,Clear,170,2013-01-15 06:35:00
12:55 AM,17.6,9.9,72,30.40,10.0,South,4.6,-,N/A,,Clear,170,2013-01-15 06:55:00
1:15 AM,17.2,9.9,73,30.39,10.0,South,4.6,-,N/A,,Clear,180,2013-01-15 07:15:00
1:35 AM,17.4,10.4,74,30.39,10.0,South,4.6,-,N/A,,Clear,190,2013-01-15 07:35:00
1:55 AM,18.3,10.9,73,30.39,10.0,SSW,5.8,-,N/A,,Clear,200,2013-01-15 07:55:00
2:15 AM,18.1,10.6,72,30.39,10.0,SSW,4.6,-,N/A,,Clear,210,2013-01-15 08:15:00
2:35 AM,18.1,10.8,73,30.39,10.0,SSW,4.6,-,N/A,,Clear,200,2013-01-15 08:35:00
2:55 AM,18.5,10.9,72,30.39,10.0,WSW,3.5,-,N/A,,Clear,250,2013-01-15 08:55:00
3:15 AM,18.0,11.1,75,30.39,10.0,Calm,Calm,-,N/A,,Clear,0,2013-01-15 09:15:00
3:35 AM,18.0,12.2,78,30.38,10.0,Calm,Calm,-,N/A,,Clear,0,2013-01-15 09:35:00
3:55 AM,18.3,13.1,80,30.37,10.0,Calm,Calm,-,N/A,,Clear,0,2013-01-15 09:55:00
4:15 AM,18.3,12.9,79,30.36,10.0,Calm,Calm,-,N/A,,Clear,0,2013-01-15 10:15:00
4:55 AM,16.7,11.8,81,30.36,10.0,Calm,Calm,-,N/A,,Clear,0,2013-01-15 10:55:00
5:15 AM,16.7,11.3,79,30.34,10.0,SE,3.5,-,N/A,,Clear,130,2013-01-15 11:15:00
5:35 AM,16.5,11.3,80,30.34,10.0,Calm,Calm,-,N/A,,Clear,0,2013-01-15 11:35:00
5:55 AM,16.7,11.1,79,30.35,5.0,Calm,Calm,-,N/A,,Haze,0,2013-01-15 11:55:00
6:15 AM,15.6,10.2,79,30.36,10.0,SSE,4.6,-,N/A,,Clear,160,2013-01-15 12:15:00
6:35 AM,15.4,10.4,80,30.37,10.0,South,4.6,-,N/A,,Clear,170,2013-01-15 12:35:00
6:55 AM,15.6,10.8,81,30.36,10.0,South,3.5,-,N/A,,Clear,180,2013-01-15 12:55:00
7:15 AM,15.4,10.4,80,30.36,10.0,Calm,Calm,-,N/A,,Clear,0,2013-01-15 13:15:00
7:35 AM,15.4,10.4,80,30.37,10.0,South,4.6,-,N/A,,Clear,190,2013-01-15 13:35:00
7:55 AM,15.8,10.4,79,30.37,10.0,South,4.6,-,N/A,,Clear,190,2013-01-15 13:55:00
8:15 AM,15.4,10.0,79,30.38,10.0,South,3.5,-,N/A,,Clear,180,2013-01-15 14:15:00
8:35 AM,16.3,11.1,80,30.38,10.0,South,4.6,-,N/A,,Clear,190,2013-01-15 14:35:00
8:55 AM,17.8,11.7,77,30.38,10.0,South,3.5,-,N/A,,Clear,190,2013-01-15 14:55:00
9:15 AM,19.9,13.5,76,30.38,10.0,South,3.5,-,N/A,,Clear,170,2013-01-15 15:15:00
9:35 AM,22.5,14.4,71,30.37,10.0,South,4.6,-,N/A,,Clear,190,2013-01-15 15:35:00
9:55 AM,23.2,14.0,68,30.36,10.0,SSW,5.8,-,N/A,,Clear,200,2013-01-15 15:55:00
10:15 AM,25.9,15.6,65,30.35,10.0,SSW,5.8,-,N/A,,Clear,210,2013-01-15 16:15:00
10:35 AM,27.9,15.8,61,30.34,10.0,SW,3.5,-,N/A,,Clear,220,2013-01-15 16:35:00
10:55 AM,29.1,14.4,54,30.34,10.0,WSW,6.9,-,N/A,,Clear,240,2013-01-15 16:55:00
11:15 AM,30.2,14.0,51,30.33,10.0,SW,4.6,-,N/A,,Clear,230,2013-01-15 17:15:00
11:35 AM,30.9,13.8,49,30.32,10.0,West,4.6,-,N/A,,Clear,270,2013-01-15 17:35:00
11:55 AM,31.8,12.6,45,30.31,10.0,SW,5.8,-,N/A,,Clear,220,2013-01-15 17:55:00
12:15 PM,32.2,12.7,45,30.30,10.0,South,9.2,-,N/A,,Clear,180,2013-01-15 18:15:00
12:35 PM,32.2,11.1,42,30.29,10.0,South,9.2,-,N/A,,Clear,180,2013-01-15 18:35:00
12:55 PM,33.1,12.0,42,30.28,10.0,SSW,5.8,-,N/A,,Clear,210,2013-01-15 18:55:00
1:15 PM,33.1,9.3,37,30.27,10.0,South,6.9,-,N/A,,Clear,190,2013-01-15 19:15:00
1:35 PM,33.3,9.5,37,30.26,10.0,South,5.8,-,N/A,,Clear,190,2013-01-15 19:35:00
1:55 PM,35.1,10.8,37,30.25,10.0,SSW,8.1,-,N/A,,Clear,210,2013-01-15 19:55:00
2:15 PM,34.7,10.4,37,30.25,10.0,South,8.1,-,N/A,,Clear,190,2013-01-15 20:15:00
2:35 PM,34.9,10.4,36,30.25,10.0,SSW,9.2,-,N/A,,Clear,200,2013-01-15 20:35:00
2:55 PM,35.1,11.1,37,30.25,10.0,SSW,8.1,-,N/A,,Clear,200,2013-01-15 20:55:00
3:15 PM,34.7,10.6,37,30.25,10.0,South,10.4,-,N/A,,Clear,170,2013-01-15 21:15:00
3:35 PM,34.3,10.6,37,30.25,10.0,South,8.1,-,N/A,,Clear,190,2013-01-15 21:35:00
3:55 PM,33.8,10.6,38,30.24,10.0,South,8.1,-,N/A,,Clear,190,2013-01-15 21:55:00
4:15 PM,33.1,9.9,38,30.24,10.0,South,9.2,-,N/A,,Clear,190,2013-01-15 22:15:00
4:35 PM,32.4,9.1,38,30.24,10.0,South,8.1,-,N/A,,Clear,190,2013-01-15 22:35:00
4:55 PM,31.6,9.7,40,30.23,10.0,SSW,5.8,-,N/A,,Clear,200,2013-01-15 22:55:00
5:15 PM,29.8,10.0,44,30.22,10.0,South,5.8,-,N/A,,Clear,190,2013-01-15 23:15:00
5:35 PM,28.0,12.6,52,30.22,10.0,South,5.8,-,N/A,,Clear,180,2013-01-15 23:35:00
5:55 PM,27.1,12.7,55,30.22,10.0,South,5.8,-,N/A,,Clear,170,2013-01-15 23:55:00
6:15 PM,26.6,12.6,55,30.21,10.0,South,4.6,-,N/A,,Clear,170,2013-01-16 00:15:00
6:35 PM,26.4,12.2,55,30.20,10.0,South,6.9,-,N/A,,Clear,170,2013-01-16 00:35:00
6:55 PM,25.7,10.6,53,30.20,10.0,South,4.6,-,N/A,,Clear,190,2013-01-16 00:55:00
7:15 PM,24.8,11.3,57,30.20,10.0,South,5.8,-,N/A,,Clear,190,2013-01-16 01:15:00
7:35 PM,25.2,9.5,52,30.19,10.0,SSW,5.8,-,N/A,,Clear,200,2013-01-16 01:35:00
7:55 PM,24.8,9.3,52,30.18,10.0,South,6.9,-,N/A,,Clear,190,2013-01-16 01:55:00
8:15 PM,24.4,9.5,53,30.17,10.0,SSW,4.6,-,N/A,,Clear,210,2013-01-16 02:15:00
8:35 PM,24.1,9.3,53,30.16,10.0,SSW,3.5,-,N/A,,Clear,210,2013-01-16 02:35:00
8:55 PM,23.9,8.8,53,30.15,10.0,SSW,5.8,-,N/A,,Clear,210,2013-01-16 02:55:00
9:15 PM,24.6,9.3,52,30.15,10.0,SSW,6.9,-,N/A,,Clear,210,2013-01-16 03:15:00
9:35 PM,24.6,9.5,53,30.15,10.0,SW,8.1,-,N/A,,Clear,220,2013-01-16 03:35:00
9:55 PM,23.9,9.9,55,30.14,10.0,SW,8.1,-,N/A,,Clear,220,2013-01-16 03:55:00
10:15 PM,23.0,10.2,58,30.14,10.0,SSW,8.1,-,N/A,,Clear,210,2013-01-16 04:15:00
10:35 PM,22.8,10.4,59,30.13,10.0,SSW,8.1,-,N/A,,Clear,210,2013-01-16 04:35:00
10:55 PM,22.5,10.4,60,30.12,10.0,SSW,8.1,-,N/A,,Clear,210,2013-01-16 04:55:00
11:15 PM,22.8,10.4,59,30.11,10.0,SSW,9.2,-,N/A,,Clear,210,2013-01-16 05:15:00
11:35 PM,22.8,10.4,59,30.11,10.0,SSW,8.1,-,N/A,,Clear,200,2013-01-16 05:35:00